DECAYED

VOLGA R/B, 62905 (Decayed)

Orbit data source: Space-Track

VOLGA R/B, 62905 was space debris in LEO originally from a launch on Wed, 05 Feb 2025 UTC launched from the Plesetsk Missile And Space Complex (PKMTR). Debris objects in space refer to the collection of defunct objects orbiting the Earth. Examples of debris include non-operational satellites, rocket bodies, and fragments generated from explosions, collisions, or faulty payload assembly.

Loading next visibility...
Identifier
62905, 2025-026D
Orbit
Decayed
Last TLE update
3 months ago
Origin
Manufacturer
TsSKB-Progress
Mission
Spacecraft
Bus & Motor
VOLGA, Unknown motor
Mass
~1,120 kg wet, 1,120 kg dry
Launch date (UTC)
2025-02-05 (3 months ago)
Launch vehicle
Unknown
Launch site
Plesetsk Missile And Space Complex (PKMTR)
Object type
Payload
Rocket body
Debris
Shape & HBR
Cyl, 3.2 m
Radar Cross Section
6.585 m²

Expand to show TLE details & history

TLE from 3 months ago
0 VOLGA R/B
1 62905U 25026D   25036.49449979  .00070488  00000-0  65653-2 0  9992
2 62905  81.9945 220.5351 0010097 276.0393  83.9657 14.93887108    35
Epoch: 2025-02-05T11:52Z
Definitive object data (Epoch: 2025-02-05T11:52:04.781Z)
Latitude
-0.00189°
Longitude
-93.36971°
Altitude
588.134 km
Speed
7.566 km/s
True Right ascension
14h 42m 08s
True Declination
0° 00' 07"
Sunlit
Object was in daylight at TLE epoch
Visualization observer readout
Visualization observer readout
Orbital elements
Apogee altitude
589.885 km
Perigee altitude
575.828 km
Semi-major axis
6,960.993 km
Eccentricity
0.0010097
Inclination
81.9945°
RAAN
220.5351°
Arg. of periapsis
276.0393°
True anomaly
84.08078°
Mean anomaly
83.9657°
Eccentric anomaly
84.02324°
Mean motion
3.73711 °/min
BSTAR
0.0065653
Orbital period
96.33 mins
Loading maneuver chart data...
Loading SW <> Apogee altitude chart data...
Loading historical data...
Loading historical data...
Loading historical data...
Loading historical data...
Loading historical data...
Loading historical data...
Loading historical data...
Other satellites on launch #26 in the year 2025 (2025-02-05 UTC)

VOLGA R/B Visibility forecast

Observer location: undefined°, undefined°

Span
Click to sort rows by Start time (UTC) header in descending order
Start Az.
Max El. time (UTC)
Max El. Az.
Max El.
End time (UTC)
End Az.
7 mins2025-05-10 00:13:14.709Z171.139° S2025-05-10 00:16:14.709Z116.24° SE38.775°2025-05-10 00:20:14.709Z17.669° NNE
6 mins2025-05-10 11:48:14.709Z338.458° N2025-05-10 11:51:14.709Z254.938° W39.077°2025-05-10 11:54:14.709Z190.223° SSW
|